FW3092 Weather Reports


Display with metric or nautical units.
time (UTC)temp
F
wind
direction
speed
MPH
gust
MPH
rain 1hr
in
rain 24hr
in
rain mn
in
humidity
%
barometer
mb
20260901233017 75 297 0.0 0.0 0.00 0.20 0.13 84 959.5
20260901231517 76 297 0.0 1.0 0.00 0.20 0.13 84 959.3
20260901230017 76 297 0.0 3.0 0.00 0.20 0.13 83 959.3
20260901224515 77 288 0.0 3.0 0.00 0.22 0.13 83 959.3
20260901223015 77 288 0.0 3.0 0.00 0.22 0.13 83 959.2
20260901221536 77 304 0.0 2.0 0.00 0.22 0.13 83 959.3
20260901220015 78 298 0.0 3.0 0.00 0.22 0.13 83 959.4
20260901214512 78 346 0.0 1.0 0.00 0.27 0.13 83 959.4
20260901213012 78 331 1.0 3.0 0.00 0.27 0.13 83 959.2
20260901211509 77 309 0.0 4.0 0.00 0.27 0.13 84 959.0
20260901210014 76 288 0.0 2.0 0.00 0.27 0.13 85 959.1
20260901204505 76 281 0.0 5.0 0.00 0.28 0.13 84 959.2
20260901203003 75 290 2.0 5.0 0.00 0.28 0.13 85 959.2
20260901201508 75 252 1.0 5.0 0.00 0.28 0.13 86 959.3
20260901200001 75 263 0.0 2.0 0.00 0.30 0.13 86 959.3
20260901194600 75 282 0.0 3.0 0.00 0.30 0.13 86 959.4
20260901193109 75 247 0.0 4.0 0.00 0.30 0.13 87 959.4
20260901191559 75 247 1.0 3.0 0.00 0.30 0.13 87 959.4
20260901190057 75 259 1.0 4.0 0.00 0.30 0.13 87 959.3
20260901184603 75 252 3.0 7.0 0.00 0.30 0.13 87 959.2
20260901183058 74 219 2.0 7.0 0.00 0.30 0.13 87 959.0
20260901181555 74 248 4.0 8.0 0.00 0.30 0.13 89 959.0
20260901180051 73 238 3.0 8.0 0.00 0.30 0.13 90 958.9
20260901174546 73 240 5.0 11.0 0.00 0.36 0.13 92 958.8
20260901173043 72 281 5.0 10.0 0.00 0.36 0.13 92 958.9
20260901171540 71 285 6.0 9.0 0.00 0.36 0.13 92 958.9
20260901170038 70 217 4.0 9.0 0.00 0.36 0.13 92 958.8
20260901164536 70 267 4.0 10.0 0.00 0.49 0.13 92 958.9
20260901163036 70 221 3.0 8.0 0.00 0.49 0.13 92 959.0
20260901161540 70 219 3.0 7.0 0.00 0.49 0.13 92 959.1
20260901160133 70 239 4.0 9.0 0.00 0.49 0.13 92 958.9
20260901154531 69 200 4.0 8.0 0.00 0.50 0.13 92 959.0
20260901153034 69 236 2.0 5.0 0.00 0.50 0.13 92 959.2
20260901151529 69 221 3.0 5.0 0.00 0.50 0.13 92 959.2
20260901150031 69 228 2.0 6.0 0.00 0.50 0.13 92 959.2
20260901144525 68 258 3.0 7.0 0.00 0.50 0.13 92 959.0
20260901143029 68 227 4.0 11.0 0.00 0.50 0.13 92 958.9
20260901141524 68 249 4.0 9.0 0.00 0.50 0.13 92 958.8
20260901140024 68 259 6.0 11.0 0.00 0.50 0.13 92 959.0
20260901134536 68 236 3.0 9.0 0.00 0.50 0.13 92 959.0
20260901133019 67 232 4.0 8.0 0.01 0.50 0.13 92 959.1
20260901131520 67 229 3.0 8.0 0.01 0.50 0.13 92 959.3
20260901130017 67 207 1.0 3.0 0.01 0.50 0.13 92 959.3
20260901124519 67 194 1.0 6.0 0.01 0.50 0.13 92 959.2
20260901123013 67 217 4.0 8.0 0.02 0.49 0.12 92 959.7
20260901121514 66 237 3.0 8.0 0.07 0.49 0.12 92 960.0
20260901120011 66 223 2.0 5.0 0.07 0.49 0.12 92 959.5
20260901114506 66 219 0.0 2.0 0.08 0.49 0.12 92 959.6
20260901113002 66 219 1.0 2.0 0.05 0.46 0.09 92 959.8
20260901111601 65 219 0.0 1.0 0.02 0.42 0.05 92 959.6
20260901110106 65 219 0.0 2.0 0.02 0.42 0.05 92 959.2
20260901104601 65 219 0.0 3.0 0.01 0.41 0.04 92 959.3
20260901103056 65 217 2.0 5.0 0.01 0.41 0.04 92 959.1
20260901101612 65 200 1.0 4.0 0.00 0.40 0.03 92 959.1
20260901100107 65 201 1.0 5.0 0.00 0.40 0.03 92 959.0
20260901094553 65 201 1.0 4.0 0.00 0.40 0.03 92 959.2
20260901093052 65 200 2.0 4.0 0.00 0.40 0.03 92 959.4
20260901091552 65 201 1.0 5.0 0.01 0.40 0.03 92 959.3
20260901090055 65 232 1.0 3.0 0.03 0.40 0.03 92 959.4
20260901084548 66 234 1.0 3.0 0.03 0.40 0.03 92 959.7
20260901083044 66 250 1.0 5.0 0.03 0.40 0.03 92 959.9
20260901081547 65 248 3.0 5.0 0.02 0.39 0.02 92 960.0
20260901080044 65 257 3.0 6.0 0.00 0.37 0.00 92 960.0
20260901074540 65 247 1.0 3.0 0.00 0.37 0.00 92 960.0
20260901073042 65 247 1.0 3.0 0.00 0.37 0.00 92 959.9
20260901071539 65 247 1.0 2.0 0.00 0.37 0.00 92 960.1
20260901070053 65 247 1.0 3.0 0.00 0.37 0.00 92 960.1
20260901064537 65 247 1.0 3.0 0.00 0.37 0.00 92 960.2
20260901063013 64 247 1.0 2.0 0.00 0.37 0.00 92 960.3
20260901061507 65 247 1.0 2.0 0.00 0.37 0.00 92 960.3
20260901060007 65 247 1.0 3.0 0.00 0.37 0.00 92 960.4
20260901054504 65 247 0.0 3.0 0.00 0.37 0.00 92 960.7
20260901053003 65 247 1.0 4.0 0.00 0.37 0.00 92 960.8
20260901051700 65 247 1.0 3.0 0.00 0.37 0.00 91 960.8
20260901050059 65 247 1.0 3.0 0.00 0.37 0.00 92 961.0
20260901044620 65 247 2.0 4.0 0.00 0.37 0.00 92 960.9
20260901043057 65 247 3.0 5.0 0.00 0.37 0.00 92 961.1
20260901041554 65 242 2.0 5.0 0.00 0.37 0.00 91 961.1
20260901040053 65 252 2.0 4.0 0.00 0.37 0.00 91 960.9
20260901034557 65 248 3.0 5.0 0.00 0.37 0.37 91 961.0
20260901033049 65 245 3.0 5.0 0.00 0.37 0.37 91 961.1
20260901031553 65 243 2.0 4.0 0.00 0.37 0.37 91 961.1
20260901030049 65 234 2.0 5.0 0.01 0.37 0.37 91 961.1
20260901024548 65 223 2.0 5.0 0.01 0.37 0.37 91 961.0
20260901023047 65 225 3.0 6.0 0.02 0.37 0.37 91 961.2
20260901021607 65 219 2.0 4.0 0.05 0.37 0.37 91 961.4
20260901020104 65 236 2.0 5.0 0.04 0.36 0.36 91 961.5
20260901014549 65 229 3.0 5.0 0.05 0.36 0.36 91 961.6
20260901013046 65 234 2.0 5.0 0.04 0.35 0.35 91 961.7
20260901011545 65 212 2.0 4.0 0.01 0.32 0.32 91 961.6
20260901010045 65 214 1.0 5.0 0.02 0.32 0.32 91 961.4
20260901004545 65 229 1.0 6.0 0.01 0.31 0.31 91 961.4
20260901003050 65 227 3.0 5.0 0.01 0.31 0.31 91 961.2
20260901001557 65 199 2.0 5.0 0.01 0.31 0.31 91 961.1
20260901000048 65 209 2.0 5.0 0.00 0.30 0.30 91 961.2
20260831234556 65 196 2.0 5.0 0.00 0.30 0.30 91 961.2